Temp
21 20 20 20 20 20 20 20 20 19 19 19 19 19 19 18 18 18 19 19 18 18 17 17 17 17 17 17 17 18 17 17 17 17 17 17 17 17 17 17 17 17 17 17 17 17 18 18 18 18 18 18 18 18 18 19 19 19 19 19 19 19 18 18 18 20 21 21 21 21 21 21 21 21 21 22 22 22 23 22 22 22 23 23 23
20 20 20 20 20 20 20 20 20 19 20 19 19 19 19 19 19 18 19 18 18 18 18 18 18 17 17 17 17 18 18 18 17 17 17 17 17 16 16 16 16 17 17 17 17 17 17 17 17 18 18 18 18 18 18 18 19 19 19 19 19 19 19 18 18 19 20 21 21 21 21 21 21 21 21 21 21 22 22 22 22 22 23 23 23
20 20 20 20 20 20 20 20 20 20 20 20 20 19 19 19 19 18 18 19 19 18 18 18 18 17 17 17 17 17 18 17 17 17 17 17 16 16 16 16 16 16 16 16 17 17 17 17 17 17 18 18 19 18 18 18 19 19 19 19 19 19 19 19 18 19 20 20 21 21 21 21 21 21 21 21 21 21 22 22 22 22 22 23 23
20 20 19 19 20 20 20 20 20 20 20 20 20 19 19 19 19 18 18 18 18 18 18 18 18 18 18 17 17 17 17 17 17 17 17 16 16 16 16 15 15 16 16 16 16 17 17 17 17 17 17 18 18 18 18 18 18 18 19 19 19 19 19 19 19 19 19 20 20 21 21 21 21 21 21 21 21 21 21 21 21 22 22 22 23
20 19 19 19 19 20 20 20 20 20 20 20 20 19 19 19 19 19 18 18 18 18 18 18 18 18 18 18 18 18 17 17 17 17 16 16 16 16 16 15 15 15 15 16 16 16 16 17 17 17 17 17 18 18 18 18 18 18 18 19 19 19 19 19 19 19 19 19 20 21 21 21 21 20 20 20 20 20 20 21 21 21 22 22 22
19 19 19 19 19 20 20 20 20 20 20 20 20 19 19 19 19 19 18 19 19 19 18 18 19 19 19 18 18 18 18 18 17 17 16 16 16 16 15 15 15 15 15 15 15 15 16 16 17 17 17 17 18 18 18 18 18 18 18 18 19 19 19 19 19 19 19 19 20 20 20 20 20 20 20 20 20 21 21 21 21 21 22 22 22
20 19 19 19 19 20 20 20 20 20 20 20 20 20 19 19 19 19 19 19 19 19 19 19 19 19 19 19 18 18 18 18 17 17 16 16 16 15 15 15 15 15 15 15 15 15 15 16 17 17 17 17 17 18 18 18 18 18 18 18 18 18 18 19 19 19 19 19 19 20 20 20 20 20 20 20 20 20 21 21 21 21 21 21 21
20 19 19 19 19 20 20 20 20 20 20 20 20 20 20 19 19 19 19 19 19 19 19 19 19 19 19 19 19 18 18 18 17 17 16 16 16 15 15 15 14 15 15 15 15 15 15 16 16 17 17 17 17 18 18 18 18 18 18 18 18 18 18 19 19 19 19 19 19 20 20 20 20 20 20 20 20 20 20 21 21 22 21 21 21
20 19 19 19 20 20 20 20 20 20 20 20 20 20 20 20 20 20 20 19 19 19 19 19 19 19 19 19 19 18 18 18 17 17 16 16 16 15 14 14 14 14 15 15 15 15 15 15 16 17 17 17 17 17 18 18 18 18 18 18 18 18 18 18 18 18 19 19 19 20 20 20 20 20 20 20 20 21 21 20 21 21 21 21 21
20 20 20 20 20 20 20 20 20 20 20 20 20 20 20 20 20 20 20 19 19 19 19 19 19 19 19 19 18 18 18 18 17 17 16 16 16 15 14 14 15 14 14 14 14 14 15 15 16 16 16 17 17 17 17 17 17 18 18 18 18 18 18 18 18 18 19 19 19 20 20 20 20 21 21 21 20 20 21 21 21 21 21 21 21
20 20 20 20 20 20 20 20 20 20 20 20 20 20 20 20 20 20 20 19 19 19 20 20 19 19 19 19 18 18 18 17 17 17 16 16 15 15 14 14 14 14 14 14 14 13 13 14 15 16 16 17 17 17 17 17 17 17 18 18 17 17 18 18 18 18 18 19 19 20 20 20 21 21 21 21 21 20 20 21 21 21 21 21 22
20 20 20 20 20 20 20 20 20 20 20 20 20 20 20 20 20 19 19 19 19 20 20 20 20 20 19 19 19 18 17 17 17 17 16 16 15 15 15 14 14 14 13 13 13 13 13 13 14 15 16 17 17 17 17 17 17 17 17 17 17 17 18 18 18 18 19 19 19 20 20 20 21 21 21 21 21 20 20 20 21 21 21 21 21
20 20 20 20 20 20 20 20 20 20 20 20 20 20 20 20 20 19 19 20 20 20 20 20 20 20 20 19 19 18 18 18 17 17 16 16 15 15 15 15 14 13 13 13 13 13 13 13 13 14 15 16 16 17 17 17 17 17 17 17 17 17 17 18 18 18 19 19 19 20 20 20 20 20 20 21 21 20 20 20 20 20 21 21 21
20 20 20 20 20 20 20 20 20 20 20 20 20 20 20 20 20 19 19 20 20 20 20 20 20 20 20 19 19 19 18 18 18 17 16 16 16 15 15 15 14 13 13 13 13 12 12 12 12 13 14 15 15 16 16 17 17 17 17 17 17 17 17 17 17 18 18 19 19 20 20 20 20 20 20 20 20 20 20 21 20 20 20 21 21
20 20 20 20 20 20 20 20 20 20 20 20 20 20 20 20 20 19 19 20 20 20 20 19 20 20 20 19 19 19 18 18 17 17 17 16 16 15 15 15 14 14 13 13 13 13 12 12 12 12 12 13 13 14 14 15 16 17 17 17 17 17 17 17 17 17 18 18 19 19 20 20 20 20 20 20 19 20 20 20 20 20 20 20 20
20 20 20 20 20 20 20 20 20 20 20 20 20 20 20 20 19 19 19 19 20 20 19 19 19 19 19 19 19 18 18 18 17 17 17 16 16 15 15 14 14 14 14 14 14 13 13 12 12 12 12 12 13 13 14 14 15 16 17 17 17 17 17 17 17 17 17 17 18 19 20 20 20 19 19 19 19 19 19 20 20 20 20 20 20
20 20 20 20 21 20 20 20 20 20 20 20 20 20 20 20 19 19 19 19 19 19 19 20 20 19 19 19 19 18 18 18 18 17 17 17 16 15 15 14 15 14 14 14 14 14 13 12 12 12 12 12 13 13 13 14 14 15 16 17 17 17 17 17 17 17 17 17 17 18 19 19 19 19 19 19 19 19 19 20 20 20 20 20 21
20 20 20 21 21 21 20 20 20 20 20 20 20 20 20 20 19 19 19 19 19 20 19 19 20 19 19 19 18 18 18 18 18 17 17 17 16 16 15 14 15 15 15 14 14 14 14 13 13 12 12 13 13 13 13 13 14 15 15 16 17 18 18 17 17 17 17 17 17 17 18 19 19 19 19 19 19 19 19 19 20 20 20 20 21
21 21 21 21 20 20 20 20 20 20 20 20 20 20 20 19 19 19 19 19 19 19 19 19 19 19 19 19 19 18 18 18 18 18 17 17 16 16 15 14 15 15 15 14 14 14 14 14 13 13 13 13 13 13 14 13 13 14 15 16 17 18 18 18 18 17 17 16 16 17 17 18 18 18 19 19 19 19 19 19 20 20 20 20 22
22 21 21 20 20 20 20 20 20 20 20 20 20 20 20 19 19 19 19 19 19 19 19 19 19 19 19 19 19 19 18 18 18 18 17 17 16 16 16 15 14 15 15 14 14 14 14 14 14 14 13 14 13 13 14 14 13 13 14 14 15 17 18 18 18 17 17 16 16 16 17 17 17 18 18 18 18 19 19 19 19 20 20 21 22
22 21 21 20 20 20 20 20 20 20 20 20 20 20 20 19 19 19 19 19 19 19 19 19 19 19 19 19 19 19 18 18 18 18 18 17 17 16 16 15 15 14 14 14 14 14 14 14 14 14 14 14 13 13 13 14 13 13 13 13 14 16 17 18 17 17 17 17 16 16 17 17 17 17 17 18 18 18 18 19 19 20 21 21 22
21 21 21 20 20 20 20 20 20 20 20 20 20 20 20 19 19 19 19 19 19 19 19 19 19 19 19 19 19 18 18 18 18 18 18 17 17 17 16 16 15 15 14 14 14 14 14 14 14 14 14 14 14 13 14 14 14 14 13 14 14 15 17 17 17 17 17 17 17 17 17 17 17 17 17 17 18 18 18 18 19 19 20 21 21
21 21 21 21 20 20 20 20 20 20 20 20 20 20 20 19 19 19 19 19 18 18 18 18 18 18 19 19 19 18 18 18 18 18 18 18 17 17 17 16 15 15 15 15 14 14 15 15 15 14 14 14 14 14 14 14 14 14 14 14 14 15 16 17 17 17 17 17 17 17 17 17 17 17 17 17 17 18 18 18 18 19 19 20 20
21 21 21 21 20 20 20 20 20 20 20 20 20 20 20 19 19 19 19 18 18 18 18 18 18 18 18 18 19 18 18 18 18 18 18 18 17 17 17 17 16 16 15 15 15 15 15 15 15 15 15 14 14 14 15 15 14 14 14 14 14 14 15 15 16 17 17 17 17 17 17 17 17 17 17 17 18 18 18 18 18 18 19 19 19
21 21 20 20 20 20 20 20 20 20 20 20 20 20 19 19 19 19 18 18 17 17 18 18 18 18 18 18 18 18 18 17 17 17 18 18 18 17 17 17 16 16 16 16 16 16 16 16 16 16 15 15 15 15 15 15 15 14 14 14 14 14 14 14 15 16 16 16 17 17 17 17 18 18 18 18 18 18 18 18 18 18 18 18 18
20 20 20 20 20 20 20 20 19 19 20 20 20 20 19 19 19 18 18 18 17 17 17 17 17 18 18 18 18 17 17 17 16 16 17 17 18 18 17 17 17 17 17 17 17 17 17 17 16 16 16 15 15 15 15 15 15 15 15 14 14 14 13 13 14 14 14 15 16 16 17 17 17 18 18 18 17 17 17 17 17 17 18 17 17
20 20 20 20 20 19 19 19 19 19 19 19 20 20 19 19 18 18 17 17 17 17 17 17 17 17 17 17 17 16 16 16 16 16 17 17 17 17 17 17 17 17 17 17 17 17 17 17 17 17 16 16 15 15 15 15 15 15 15 15 14 14 14 14 14 14 14 14 14 14 15 16 17 17 17 17 17 17 17 17 17 17 17 18 17
19 19 19 19 19 19 19 18 18 19 19 19 19 19 19 18 18 17 16 16 16 16 16 15 15 15 15 15 15 15 16 14 13 14 15 16 16 16 16 17 17 17 17 17 17 18 17 17 17 17 17 16 16 16 15 15 15 15 15 15 15 14 14 14 14 14 14 14 14 14 14 15 15 15 16 16 16 16 17 17 17 17 17 17 17
19 19 19 19 19 19 19 18 18 19 19 19 19 19 18 18 17 15 15 15 15 15 14 13 13 13 13 13 13 13 13 12 11 12 13 14 15 15 15 16 16 16 16 17 17 17 17 17 17 16 16 16 15 15 15 15 15 15 15 15 15 15 14 14 14 13 14 14 15 14 14 14 15 15 15 15 16 16 16 16 17 16 16 16 16
19 18 18 19 19 19 19 19 19 19 19 19 18 17 17 16 16 15 14 13 14 14 14 13 12 12 11 11 11 10 10 10 11 13 14 14 15 14 14 15 16 16 16 17 17 16 16 16 16 16 15 15 15 15 15 15 15 15 15 15 15 15 15 14 14 14 14 14 14 14 15 15 15 15 15 15 15 16 16 16 16 16 16 16 15
18 19 19 18 18 18 18 19 19 19 19 19 18 17 15 14 13 13 13 13 13 13 13 12 11 11 11 10 10 10 10 10 11 13 14 14 14 14 14 14 15 16 16 16 16 16 15 16 16 15 15 15 15 14 15 15 15 15 15 15 15 15 15 15 14 14 14 14 14 14 14 14 15 15 15 15 16 16 16 16 16 16 16 16 15
18 18 18 17 17 17 18 18 18 18 18 17 17 17 15 13 12 11 12 12 12 12 11 11 10 10 10 10 10 10 10 11 12 13 13 14 14 14 14 14 14 16 16 16 15 15 15 15 14 14 14 14 14 14 14 14 15 15 15 15 15 15 15 15 15 15 15 14 14 14 14 14 15 15 15 15 16 16 16 16 16 16 16 15 15
18 18 17 17 17 17 17 17 17 17 17 16 16 16 16 16 14 12 11 11 11 10 10 10 10 9 9 9 9 10 11 11 12 13 13 13 13 14 13 13 13 15 16 15 13 13 13 13 12 12 12 12 12 12 12 13 13 14 14 14 14 14 14 15 15 15 15 15 14 14 14 14 14 14 15 15 15 15 15 15 15 15 15 15 15
17 17 17 17 17 17 17 17 17 17 16 16 16 15 15 16 15 14 13 12 12 11 11 10 10 10 10 10 10 10 11 11 12 13 13 13 13 14 14 13 13 14 14 12 11 11 11 11 10 10 10 10 11 10 10 10 11 11 12 12 13 13 14 14 15 15 15 15 15 15 15 14 15 15 15 15 15 15 15 15 15 15 15 15 15
17 17 16 16 16 16 16 16 17 16 15 15 15 14 14 14 14 15 15 14 14 14 13 12 10 10 10 10 9 9 10 11 11 12 13 13 13 13 14 13 12 11 11 9 9 9 9 9 9 8 8 9 9 9 9 9 9 10 10 10 11 12 13 13 14 14 14 15 15 15 15 15 15 15 15 15 15 15 15 15 15 15 15 15 15
16 16 16 16 15 16 16 16 16 16 15 15 14 14 14 14 13 13 13 13 13 13 13 12 11 10 9 9 9 9 9 10 10 11 12 12 12 12 12 11 10 10 9 9 8 8 7 7 7 7 7 7 7 8 8 8 8 8 8 8 9 10 11 12 12 13 13 14 14 14 14 14 14 14 15 15 15 15 15 15 15 15 15 15 15
15 15 15 15 15 15 15 15 15 14 14 14 14 13 13 13 12 12 12 11 11 12 11 11 11 10 9 8 8 8 9 9 9 10 10 9 9 10 9 9 9 9 8 8 7 7 7 6 6 6 6 6 6 6 7 7 7 7 7 8 8 8 9 10 11 12 12 12 12 12 12 12 13 13 14 14 14 14 15 15 15 15 15 15 15
14 14 14 14 14 14 14 14 13 13 13 13 13 12 12 12 12 11 11 10 10 11 10 10 9 9 8 8 8 9 9 9 9 9 9 8 8 9 9 8 8 8 7 6 6 6 6 5 5 4 4 4 5 5 5 6 6 7 7 7 7 8 8 9 10 10 11 11 10 10 10 11 11 12 13 14 14 14 14 15 15 15 15 15 15
13 13 13 13 13 13 13 13 12 12 12 12 12 12 12 12 11 11 10 10 10 10 10 9 8 7 7 7 7 9 9 9 9 9 8 8 7 7 7 7 7 7 6 5 5 5 5 4 4 3 3 3 3 3 4 4 5 5 6 6 6 7 7 7 8 8 8 9 9 9 9 9 10 11 12 12 13 13 14 14 14 15 15 15 16
13 13 12 12 12 12 12 12 12 12 12 12 12 11 11 11 11 11 10 10 10 9 9 8 7 6 6 6 7 8 8 8 8 8 7 7 6 6 5 5 5 5 5 4 4 4 4 4 3 3 3 3 3 3 3 3 3 4 4 5 5 5 5 5 6 6 6 7 8 8 8 9 10 11 11 11 11 12 13 13 14 15 15 15 15
13 12 12 12 12 12 11 11 11 11 11 11 11 11 11 11 11 11 10 10 9 9 8 7 6 5 5 6 6 7 7 7 7 7 6 6 5 5 4 4 4 4 4 3 3 3 3 3 3 3 2 2 2 2 2 3 3 3 3 3 3 4 4 4 4 4 5 6 7 7 8 8 9 10 10 10 10 11 12 12 13 14 14 14 15
12 11 11 11 11 11 11 11 10 10 11 11 11 11 11 10 10 10 10 9 9 9 8 7 6 5 5 5 5 6 6 6 6 6 5 5 4 4 3 3 3 3 3 3 3 3 3 2 2 2 2 2 1 1 2 2 2 2 2 2 3 3 3 3 3 3 3 4 5 6 7 7 8 9 9 10 10 10 10 11 11 13 13 14 14
11 11 11 10 10 10 10 10 10 10 10 10 10 10 10 10 10 10 10 9 9 8 8 7 7 6 5 5 5 5 5 5 5 5 4 4 4 3 3 2 2 2 2 2 2 2 2 2 2 1 1 1 1 1 1 1 1 1 1 1 1 2 2 2 2 3 3 3 3 4 5 6 7 7 8 9 10 10 10 10 10 11 12 13 14
10 10 10 10 10 9 9 9 9 10 10 9 9 9 9 9 9 9 9 8 8 8 8 7 7 7 6 6 5 5 5 5 4 4 4 3 3 2 2 2 2 2 2 2 2 2 2 1 1 1 1 1 1 1 1 0 0 0 0 0 0 1 1 1 1 2 3 2 3 3 4 5 5 6 7 7 8 8 9 9 9 9 10 11 12
10 9 9 9 9 9 9 9 9 9 9 9 9 9 8 8 8 8 8 8 7 7 7 7 7 7 7 6 5 5 4 4 4 4 3 3 2 2 2 2 2 2 3 3 3 2 2 1 1 1 0 0 0 0 0 -0 0 0 1 0 0 0 1 1 1 1 2 2 2 3 3 4 4 5 6 6 6 7 7 7 8 9 9 9 10
10 10 9 9 9 9 9 8 8 9 9 9 9 9 8 8 8 8 7 7 7 6 6 6 6 7 7 6 6 5 5 4 4 3 3 2 2 2 2 2 2 2 2 2 2 2 2 1 0 0 0 -0 -0 -0 -0 -0 -0 0 0 1 1 1 1 1 1 1 2 2 2 2 3 3 3 4 4 5 5 6 6 6 7 7 8 8 8
10 10 9 9 9 9 9 8 8 8 8 8 8 8 8 8 7 7 7 6 6 7 7 7 6 6 6 6 6 5 5 5 4 4 3 3 2 2 2 2 2 2 1 1 1 1 1 1 0 0 -0 -0 -0 -1 -1 -0 -0 -0 -0 0 1 1 2 2 1 2 2 1 1 1 2 3 3 3 4 4 4 4 5 5 6 6 7 7 7
10 10 9 9 9 9 9 8 8 8 8 8 8 8 8 7 7 6 6 7 7 7 6 6 6 6 6 5 5 5 5 5 5 4 4 4 3 2 2 2 2 2 1 1 1 1 1 0 0 0 0 -0 -0 -1 -1 -1 -1 -1 -1 -0 1 1 2 2 2 3 2 1 0 1 1 2 2 3 3 4 4 4 4 4 5 5 5 6 6
10 10 10 9 9 9 9 8 8 8 8 7 7 7 7 7 7 7 7 7 6 6 6 6 6 6 5 5 5 5 4 4 4 4 4 3 3 2 2 2 2 2 1 1 1 0 0 0 -0 -0 -0 -0 -1 -1 -1 -1 -1 -1 -0 0 1 1 2 2 2 3 3 1 -0 0 1 1 1 2 3 3 3 4 4 4 4 4 4 5 5
9 9 9 9 9 8 8 8 8 8 7 7 7 7 7 7 7 7 6 6 6 6 6 6 6 5 5 5 5 4 4 4 4 4 3 3 3 2 2 2 2 1 1 1 1 0 0 0 -0 -0 -0 -1 -1 -1 -1 -1 -1 -0 0 0 1 1 1 2 2 3 3 2 -0 -0 0 1 1 2 2 2 2 3 3 3 4 4 4 4 4
9 9 9 8 8 8 8 8 8 7 7 7 7 7 7 7 7 6 6 6 6 6 6 5 5 5 5 5 4 4 4 4 3 3 3 2 2 2 2 2 1 1 1 1 1 0 0 0 -0 -0 -0 -1 -1 -1 -1 -1 -0 0 0 0 1 1 1 1 2 2 3 2 -0 -1 -0 0 1 1 1 1 1 2 2 2 3 3 3 3 3
Height
817 817 817 816 817 816 816 815 814 814 813 813 812 810 810 808 807 807 806 804 803 802 801 800 799 798 797 796 795 794 793 792 791 790 789 787 786 784 783 782 781 779 777 776 775 774 773 772 771 770 770 770 769 770 771 771 772 773 775 775 775 775 776 778 778 775 774 776 776 776 777 777 777 777 778 780 781 782 782 783 783 783 782 782 783
815 815 815 815 815 815 815 814 813 813 812 811 811 809 809 808 806 806 804 803 802 801 799 798 797 796 795 794 793 792 791 790 789 788 787 786 784 783 781 780 778 776 775 772 771 770 769 767 765 765 765 765 764 765 766 766 767 768 769 770 770 770 771 772 773 772 771 771 772 772 773 774 774 774 775 777 778 779 780 780 781 781 781 780 781
813 813 814 814 814 814 813 813 812 812 811 810 809 809 808 807 806 805 803 802 801 799 798 796 795 794 794 793 792 791 790 789 788 787 786 785 783 781 780 778 776 774 772 769 767 766 764 762 760 759 759 759 759 759 761 761 763 763 764 765 765 765 766 767 767 768 767 767 768 769 769 770 770 771 773 774 775 777 777 778 779 779 779 778 778
812 812 812 812 813 813 812 812 811 810 810 809 808 808 807 806 805 804 802 801 799 798 796 795 793 792 792 791 790 790 789 787 787 786 785 783 781 779 778 776 774 771 769 766 763 761 760 758 755 754 754 754 753 753 754 756 757 758 758 759 760 760 761 762 762 763 764 763 764 765 766 767 767 768 770 771 772 773 774 775 776 776 776 776 776
810 810 811 811 811 811 811 811 810 809 809 808 807 807 806 805 804 803 801 800 798 796 795 793 792 790 790 789 789 788 787 786 785 784 783 781 779 777 776 774 771 768 765 762 759 756 755 753 750 748 749 749 748 747 748 749 751 752 753 754 755 755 756 757 757 758 760 760 759 761 763 763 764 765 766 767 768 770 771 771 772 772 773 773 773
809 809 809 809 809 810 809 809 809 808 807 806 806 805 804 803 802 801 800 798 796 795 793 791 790 789 788 787 787 786 785 784 783 782 781 779 777 775 774 772 769 765 761 757 754 751 749 747 745 743 743 743 743 742 742 743 745 746 747 749 750 751 752 752 753 754 755 755 756 757 759 760 760 761 763 764 765 766 767 767 768 769 769 770 770
807 807 808 808 808 808 808 808 807 806 806 805 804 803 803 802 800 799 798 796 795 793 791 790 788 787 786 785 785 784 783 782 781 780 779 777 775 773 771 769 766 762 758 754 750 747 744 742 739 737 736 737 737 736 736 737 739 740 741 743 744 746 747 748 749 750 751 751 752 753 754 756 757 758 759 760 761 762 763 764 764 765 766 766 767
805 806 806 806 806 806 806 806 805 805 804 803 802 802 801 800 798 797 796 794 793 791 789 788 786 785 784 783 782 782 781 780 779 778 777 775 774 771 769 766 762 758 754 750 747 744 740 738 735 733 731 731 730 730 731 732 733 735 736 737 740 742 743 744 744 745 747 748 748 749 750 751 752 753 755 756 756 757 759 760 760 761 763 763 764
803 804 804 804 804 804 804 804 803 803 802 801 800 800 799 798 796 795 794 792 791 789 788 786 784 783 782 780 779 779 779 778 777 776 775 774 772 769 767 763 760 756 751 747 743 740 736 733 730 728 727 725 725 725 726 728 729 730 731 732 735 736 737 739 740 741 742 743 743 745 746 747 748 749 751 751 752 753 755 757 757 758 760 761 761
802 802 802 802 803 803 803 802 802 801 800 799 799 798 797 796 794 793 791 790 789 787 786 785 783 781 780 778 777 776 776 776 775 774 773 772 770 768 765 761 757 753 749 744 740 736 732 729 725 724 723 722 721 721 722 723 724 725 725 727 729 731 732 734 735 735 737 738 738 740 741 741 743 745 746 746 748 750 752 753 754 756 758 758 758
800 800 801 801 801 801 801 801 800 799 798 798 797 796 795 793 792 791 789 788 787 786 784 783 781 780 778 776 775 774 774 774 773 772 771 770 769 767 764 760 756 752 748 743 738 734 729 724 720 719 719 718 717 717 717 718 719 720 721 722 724 725 726 727 728 730 731 732 733 735 735 736 737 740 742 743 744 746 747 750 751 753 754 755 755
798 799 799 799 800 800 799 799 798 798 797 796 795 794 793 791 790 789 788 787 785 784 783 781 780 779 777 775 774 772 772 771 771 770 769 768 767 765 762 759 755 751 747 743 738 733 728 722 718 716 716 715 714 713 712 712 713 714 715 717 718 720 721 722 722 724 726 727 728 729 730 731 733 735 737 739 740 741 743 746 747 749 750 751 752
797 797 797 798 798 798 798 797 797 796 795 795 794 792 791 790 788 787 786 785 784 783 781 780 778 777 775 774 772 771 770 769 769 768 767 766 765 763 761 758 755 751 746 742 738 733 728 723 718 715 714 712 711 710 708 708 707 708 709 711 712 714 715 717 718 719 721 722 723 723 725 727 728 730 733 735 736 737 739 742 743 746 747 748 748
795 795 796 796 796 796 796 796 795 795 794 793 792 791 789 788 787 786 785 783 782 781 780 778 777 776 774 773 771 769 768 767 767 766 765 764 763 761 759 757 753 750 746 742 738 733 728 724 720 716 713 710 708 706 705 703 703 703 703 704 705 707 709 711 712 714 716 717 718 718 720 722 723 725 728 731 732 733 735 738 739 742 744 745 746
793 794 794 794 794 794 794 794 794 793 792 791 790 789 788 787 786 785 783 782 781 779 778 777 775 774 773 771 769 768 766 765 765 764 763 762 761 759 757 755 752 749 745 742 738 734 730 726 723 719 715 711 707 704 701 699 698 697 697 697 698 700 701 703 704 707 710 712 713 714 716 718 720 722 725 727 728 730 732 735 736 738 741 742 744
791 791 792 792 792 792 792 792 792 791 791 790 789 788 787 785 784 783 782 781 780 778 776 775 774 772 771 770 768 766 764 763 763 762 761 760 759 757 755 753 751 747 744 741 738 735 732 728 724 720 716 711 707 702 698 695 692 691 691 691 692 693 693 694 696 699 702 705 708 710 712 715 717 719 722 724 726 728 731 733 735 736 738 740 740
788 789 790 790 790 790 790 790 789 789 789 788 787 786 785 784 783 782 781 780 778 777 775 774 772 771 769 768 766 764 763 762 761 760 759 758 757 755 753 751 749 746 744 741 738 735 731 727 723 719 715 711 706 701 696 692 688 687 686 686 686 685 685 687 690 692 695 699 702 705 709 711 713 716 719 721 723 725 728 730 731 733 734 736 736
786 786 787 787 788 788 788 788 788 787 787 786 785 785 784 783 782 781 780 778 777 776 774 772 771 769 767 766 765 763 761 760 759 758 757 756 755 753 751 749 747 745 743 740 737 734 731 727 723 720 715 710 706 701 696 690 686 684 682 680 680 679 678 681 684 686 689 693 697 701 705 708 710 712 715 717 719 722 725 726 727 729 731 731 731
783 784 785 785 785 785 785 785 785 785 785 784 784 783 782 781 781 779 778 777 776 775 773 771 769 768 766 764 763 761 760 758 757 757 756 755 754 752 750 748 745 743 741 738 736 733 730 727 723 719 715 710 706 701 696 691 686 683 679 676 674 672 672 675 678 680 682 685 690 695 699 702 705 708 710 713 715 718 720 722 724 725 726 727 727
781 782 782 783 783 783 783 783 783 783 783 782 782 781 781 780 779 778 777 776 775 774 772 770 768 766 764 763 761 759 758 757 756 755 754 753 752 751 749 747 744 742 740 737 734 732 729 726 722 719 714 710 705 701 696 692 687 683 678 674 670 668 668 669 671 674 676 679 684 689 693 697 700 703 706 708 711 714 716 718 720 721 722 723 723
779 780 780 780 781 780 780 780 780 780 780 780 779 779 779 778 778 777 776 775 774 772 771 769 767 765 763 761 759 758 757 755 754 753 752 751 750 749 748 746 744 741 739 736 733 731 728 725 722 719 714 709 705 701 696 692 687 681 676 673 670 667 665 664 666 669 672 675 679 684 688 692 696 699 702 704 707 709 711 713 716 717 718 719 719
777 778 778 778 778 778 778 778 778 778 778 778 778 777 777 777 776 775 775 774 772 771 770 768 766 764 761 760 758 757 755 754 753 752 751 750 749 747 746 744 743 741 738 735 733 730 728 725 722 719 715 710 706 702 696 691 686 681 678 674 669 666 664 662 663 666 669 672 676 680 684 688 691 694 697 700 702 705 707 709 712 714 715 715 716
775 775 775 775 775 775 775 775 775 775 776 776 776 776 775 775 775 774 774 773 771 770 769 767 765 762 760 758 757 755 754 753 752 751 750 748 747 746 745 743 742 740 738 735 732 730 727 724 721 718 715 711 707 703 697 692 687 684 681 676 671 666 664 663 663 664 666 669 672 675 679 682 686 689 692 695 698 701 703 706 708 710 711 712 713
772 772 772 772 773 773 773 773 773 773 774 774 774 774 773 773 773 773 772 772 771 770 768 766 764 762 759 757 755 754 753 752 750 749 748 747 746 745 744 742 741 739 737 734 732 729 726 724 721 718 714 711 707 703 699 694 690 687 684 680 675 670 666 664 664 663 664 666 669 671 674 678 681 685 688 692 695 697 700 703 705 706 708 709 711
769 769 769 770 771 771 771 771 770 771 771 772 772 772 772 771 771 771 771 771 770 769 767 766 764 761 759 757 755 753 752 751 750 748 747 746 745 744 743 741 739 738 735 733 731 728 725 722 720 717 714 711 707 704 700 697 693 691 688 685 680 675 672 669 667 665 665 666 668 669 670 674 678 682 685 689 693 695 698 700 701 703 705 706 708
766 767 768 768 769 769 769 768 768 769 770 771 770 770 770 770 770 770 770 769 769 768 767 765 763 761 759 756 754 753 751 750 749 748 746 745 743 742 741 740 738 736 734 732 729 727 724 721 719 716 714 711 708 705 702 699 697 695 692 688 684 681 678 675 672 670 669 669 669 669 669 672 676 680 684 687 690 693 696 697 699 701 703 703 705
764 765 766 766 767 767 766 766 766 767 769 769 769 768 768 768 768 768 768 768 768 767 766 765 763 761 758 756 754 752 751 750 749 747 745 744 742 741 740 738 737 735 733 731 728 726 723 720 718 716 714 711 709 706 704 702 699 697 695 692 689 686 684 682 679 677 675 674 674 673 672 673 675 678 682 685 688 691 694 696 697 699 700 701 703
762 763 764 764 765 765 764 764 764 765 766 767 767 767 767 767 767 767 767 767 767 766 766 764 763 761 759 757 755 753 751 750 749 747 745 743 742 740 739 737 736 734 732 730 728 725 723 720 718 716 714 712 710 707 705 704 702 700 698 696 693 691 690 687 685 683 681 680 680 678 677 678 679 680 682 685 688 691 694 696 697 697 698 700 702
760 761 762 762 763 763 762 762 763 764 765 765 765 765 765 766 766 766 766 766 765 765 765 764 762 761 759 758 756 754 753 751 749 747 745 743 742 741 739 737 735 734 732 730 728 725 723 720 718 716 714 713 711 709 707 706 705 703 702 700 697 696 694 692 690 689 687 686 685 684 684 684 685 685 686 688 690 692 694 696 697 698 698 699 701
759 760 760 761 761 761 761 761 762 762 763 764 764 764 764 764 764 765 765 765 765 764 764 763 762 760 759 758 757 755 754 752 749 747 745 743 742 741 739 737 735 733 732 730 728 726 724 722 720 718 716 714 713 711 710 708 707 706 705 703 702 700 699 697 696 695 693 691 690 691 691 690 691 692 692 692 694 694 695 696 697 697 697 699 701
757 758 758 759 759 759 760 760 760 760 761 761 762 763 763 763 764 765 765 765 764 764 763 763 762 760 759 758 756 755 754 752 749 746 744 743 742 741 740 738 735 734 732 730 729 727 725 723 722 721 719 717 715 714 713 711 710 708 707 706 705 704 703 702 701 700 699 698 697 698 697 697 697 697 697 698 698 698 697 697 697 698 699 700 702
756 756 757 758 758 758 759 758 758 758 759 759 760 762 762 762 763 765 765 764 764 764 763 763 762 761 759 758 756 755 753 751 749 747 745 743 742 741 740 738 736 734 732 730 730 729 728 726 725 723 722 720 718 717 716 715 713 712 710 709 708 707 707 706 705 705 704 704 704 704 704 704 703 703 702 702 702 701 700 699 699 700 701 703 704
754 755 755 756 756 756 756 756 756 756 757 758 759 760 761 761 762 764 765 764 764 764 764 763 762 761 760 759 757 755 753 751 750 748 746 744 743 742 741 739 737 735 732 731 731 731 730 729 728 727 725 724 722 720 719 718 717 715 714 713 712 711 710 709 708 708 708 707 708 708 708 708 707 706 706 706 705 704 703 703 704 704 705 706 707
752 753 753 753 754 754 754 754 754 754 754 755 756 758 759 760 761 763 763 762 763 764 764 763 762 761 760 759 757 756 754 752 750 748 747 745 744 743 741 740 738 736 734 733 734 734 733 732 732 730 729 727 726 724 722 720 719 718 717 716 715 714 713 712 711 711 711 711 710 710 710 710 710 709 709 708 707 707 707 708 709 709 709 710 711
751 752 752 752 752 752 752 751 751 752 753 754 756 757 758 758 760 762 762 761 762 763 763 763 762 761 760 759 758 756 754 752 751 749 747 746 744 743 742 741 740 739 737 737 737 737 737 736 735 734 732 731 729 728 726 724 723 721 720 719 718 716 715 714 714 713 713 713 713 713 712 712 712 712 712 711 711 710 710 711 712 713 713 714 714
751 751 750 750 750 750 749 749 750 750 751 752 754 756 757 757 759 761 761 761 762 762 763 763 762 762 760 759 758 757 755 754 752 750 748 746 745 743 743 743 743 743 742 742 742 741 741 740 739 737 736 734 733 732 730 729 727 726 724 723 721 720 719 717 716 715 715 714 714 714 714 714 713 713 713 714 714 714 714 715 715 715 716 717 717
750 749 749 749 749 749 748 748 749 750 750 751 753 755 756 756 758 759 760 761 762 762 763 763 762 762 761 760 759 758 756 755 754 752 750 749 747 746 747 748 748 747 747 746 746 745 745 744 742 741 740 738 737 735 734 733 731 730 728 727 725 724 723 721 720 718 717 716 716 716 717 716 715 715 715 716 716 717 717 718 718 718 718 718 719
749 748 748 748 748 748 749 749 750 751 751 752 753 755 755 756 757 758 760 761 762 762 763 763 763 763 762 761 760 759 758 757 756 755 753 752 751 751 752 752 752 751 751 750 749 749 748 747 746 745 743 742 740 738 737 736 735 733 732 730 729 728 726 725 723 722 721 720 720 719 719 718 717 717 717 718 718 719 718 719 719 719 719 719 720
748 748 747 747 748 749 749 749 750 751 752 752 754 755 756 757 758 759 761 762 762 763 763 763 764 764 763 762 761 760 759 758 758 757 757 756 755 755 756 756 756 755 754 753 752 751 751 751 749 748 747 745 743 742 740 739 738 737 735 734 732 731 729 727 726 726 725 725 725 724 723 722 720 720 720 720 721 721 720 720 720 720 720 720 720
748 748 748 747 748 750 750 750 751 751 752 754 755 755 755 757 759 760 761 762 762 763 764 764 765 765 764 763 762 761 761 760 760 760 760 760 759 759 759 759 759 758 758 757 756 755 754 753 752 751 750 748 747 745 743 741 740 739 738 737 736 734 732 731 730 729 729 729 729 728 727 726 724 723 722 721 722 722 722 722 721 720 720 720 720
749 749 749 749 750 750 751 752 752 753 754 755 755 755 756 758 759 761 761 762 763 764 764 765 766 766 766 765 763 763 762 762 762 763 763 763 763 762 762 762 762 761 761 760 759 758 757 756 755 754 752 751 750 748 746 745 743 742 740 740 739 738 736 735 734 733 732 732 732 731 730 729 728 726 725 724 724 724 723 723 722 721 721 721 720
749 750 750 751 751 752 752 753 754 755 756 756 756 757 758 759 760 761 762 763 763 764 765 766 767 767 766 766 765 764 764 764 764 765 765 765 765 765 764 764 764 764 764 763 762 761 760 759 757 756 754 753 752 751 749 748 746 745 744 743 742 740 739 739 737 736 735 735 735 734 733 732 730 729 728 727 726 725 725 724 724 723 723 722 721
750 750 751 752 752 753 754 754 755 756 757 757 758 759 760 760 761 762 762 763 764 765 765 766 767 767 767 767 766 766 766 766 766 766 767 767 767 767 767 766 766 765 765 765 764 763 762 761 760 758 757 755 754 753 752 751 750 748 747 746 745 744 743 742 741 739 738 737 737 736 735 734 732 731 730 729 728 727 726 726 725 725 724 723 722
750 751 752 753 753 754 755 756 757 758 758 758 759 760 760 761 762 763 763 764 765 765 766 766 767 767 768 767 767 767 767 768 768 768 768 769 769 769 768 768 767 766 766 765 765 764 764 763 762 761 759 758 757 755 754 753 752 751 750 749 748 747 746 745 744 743 741 740 739 738 737 736 735 734 733 732 731 729 728 728 727 727 726 725 724
750 751 752 753 754 755 756 757 758 758 759 759 760 760 761 762 763 763 764 765 765 766 766 767 767 767 768 768 768 768 769 769 769 769 770 770 770 770 770 769 769 768 767 766 766 765 764 764 764 762 761 760 759 758 757 756 754 753 752 751 750 749 748 748 747 746 745 743 742 740 740 738 737 736 736 735 733 732 731 730 730 729 728 727 726
751 752 753 754 755 756 756 758 758 759 759 759 760 760 762 762 763 764 765 765 766 766 767 767 767 768 768 769 769 769 769 770 770 771 771 772 772 771 771 771 770 769 768 768 767 767 766 765 765 764 763 762 761 760 759 758 757 756 754 753 753 752 750 750 749 748 747 745 744 743 742 741 740 739 738 737 736 735 734 733 732 731 730 730 729
753 753 754 755 756 756 757 758 759 759 760 760 761 761 762 763 764 765 765 766 766 767 767 767 768 769 769 770 770 770 770 771 771 772 773 773 773 773 773 773 772 771 770 770 770 769 768 767 766 766 765 764 763 762 761 760 759 758 757 756 755 753 752 751 750 749 748 747 746 745 744 743 742 741 740 739 738 737 736 736 735 733 733 732 731
755 755 756 756 757 758 759 759 760 761 761 761 762 762 763 764 765 765 766 766 767 767 767 768 769 769 770 770 771 771 771 772 772 773 773 773 774 774 774 773 773 773 772 771 771 770 770 769 768 767 766 765 764 763 763 762 761 760 759 758 757 755 754 753 751 750 749 748 747 746 746 745 744 743 742 741 740 739 738 738 737 736 735 734 733
757 757 757 757 758 759 759 760 761 761 762 762 763 763 764 764 765 765 766 767 767 768 768 769 769 770 771 771 772 772 773 773 773 773 774 774 774 774 774 774 774 773 773 772 772 771 771 770 770 769 768 767 766 765 764 763 762 761 760 759 758 757 756 754 753 751 750 749 748 747 747 746 745 745 744 743 743 741 741 740 739 737 737 735 734
758 758 758 759 759 760 760 761 762 762 763 763 764 764 765 765 766 766 767 768 768 769 769 770 770 771 772 772 773 773 773 774 774 774 774 774 774 774 774 774 774 774 773 773 773 772 772 771 771 770 769 768 767 766 766 765 764 762 761 760 759 758 756 755 754 752 751 750 749 749 748 747 747 746 746 745 744 743 742 741 740 739 738 737 736
759 759 760 760 760 761 761 762 762 763 764 764 765 765 766 766 766 767 768 768 769 769 770 771 771 772 772 773 774 774 774 774 775 775 775 775 775 775 775 775 774 774 774 774 773 773 773 772 771 771 770 769 768 767 767 766 765 763 762 761 760 758 757 755 754 753 751 750 750 750 749 748 748 748 747 746 745 744 744 743 742 741 740 739 738
Wind_Speed
8 9 9 10 10 9 10 10 10 9 9 10 12 13 13 12 12 13 13 13 13 12 10 9 10 11 12 13 14 14 15 16 17 17 17 19 20 20 19 18 20 23 23 24 25 24 25 26 28 31 31 28 25 26 26 25 25 25 24 24 24 25 28 23 15 16 21 22 21 20 17 16 17 17 18 19 19 20 20 20 19 16 14 15 16
9 10 10 10 11 10 10 10 10 9 9 9 11 11 12 12 12 13 14 14 14 14 13 12 12 11 10 11 12 14 16 16 17 17 18 19 20 19 19 18 20 22 22 24 26 25 25 27 30 33 32 29 27 28 28 25 25 25 25 25 26 27 27 26 19 16 20 22 22 22 21 19 19 19 18 19 19 19 20 19 17 16 17 17 17
10 11 11 11 11 10 10 10 10 10 9 10 11 12 12 13 13 13 14 14 14 15 14 13 12 11 11 11 12 14 15 15 16 17 18 19 19 19 20 20 21 22 23 25 25 26 27 27 29 34 34 31 29 29 29 28 26 26 26 26 27 27 26 26 23 19 21 23 22 21 21 20 20 20 20 20 19 18 19 19 18 19 21 21 20
11 12 12 12 12 11 11 10 10 10 11 11 12 12 13 13 14 14 14 14 15 14 13 13 12 12 12 13 13 14 15 15 16 18 18 18 19 20 20 20 21 24 27 27 27 27 27 26 29 34 35 33 29 27 29 30 27 27 27 28 29 28 26 26 25 23 21 21 21 22 21 20 20 20 19 20 19 20 21 21 21 22 22 23 22
11 12 12 13 13 12 11 10 10 11 11 12 13 13 14 14 15 14 14 15 15 15 13 12 12 12 13 14 15 17 17 17 18 18 18 18 19 19 21 21 22 26 30 32 31 30 27 27 30 32 33 33 30 26 28 31 32 32 32 31 30 29 28 26 26 24 22 22 21 21 20 19 19 19 19 19 19 20 21 21 21 22 22 22 23
11 12 12 13 14 13 12 10 10 11 12 13 13 14 14 14 14 14 14 15 16 16 15 13 12 12 13 14 16 18 19 19 19 18 18 19 20 19 21 23 24 25 29 31 30 29 28 29 30 30 31 33 30 28 29 30 32 34 34 33 31 30 29 28 27 25 23 24 23 22 21 20 19 19 19 19 19 18 18 19 20 21 22 21 22
12 13 13 14 14 13 12 11 10 11 12 13 14 14 13 13 13 14 14 15 16 16 16 16 14 14 14 15 17 18 19 20 18 17 19 20 20 22 24 26 26 26 28 29 28 27 27 29 30 29 30 31 30 31 31 31 33 35 34 34 33 30 28 28 28 26 23 23 24 24 24 23 20 18 18 19 20 19 18 17 17 19 20 21 21
13 14 14 15 14 13 12 12 11 12 13 13 14 14 13 14 14 14 14 15 16 16 16 17 17 17 18 19 19 17 17 18 17 17 19 19 20 23 25 26 26 26 28 29 28 28 27 27 28 28 28 31 32 33 31 30 32 33 32 32 30 27 26 26 26 26 23 22 23 24 24 23 21 20 19 19 19 20 19 17 17 17 16 18 21
14 15 15 15 14 13 12 13 13 13 13 13 14 14 14 15 15 15 14 15 16 16 16 16 18 19 19 20 19 17 16 16 15 16 17 18 20 21 22 24 26 25 28 31 30 29 28 28 27 27 28 30 32 33 32 30 30 30 30 33 32 28 27 26 25 24 23 22 23 22 21 21 20 20 20 21 19 18 18 17 17 16 15 17 19
14 15 16 15 14 13 13 13 13 12 12 13 13 13 14 15 15 15 15 15 16 15 15 16 17 18 19 18 18 17 16 14 13 15 15 16 19 20 20 24 25 25 28 31 30 29 29 28 28 27 28 30 32 34 34 34 34 34 34 35 34 31 29 26 25 26 24 22 23 22 20 21 22 21 21 21 21 19 18 18 18 18 16 16 17
15 15 16 15 14 14 13 13 12 12 12 13 12 13 14 15 15 15 15 15 15 15 15 17 17 18 18 17 17 16 14 11 12 15 14 14 18 20 21 22 22 24 27 28 28 28 28 26 24 25 26 27 29 32 35 36 36 38 39 37 35 33 30 28 29 30 28 25 24 24 22 23 24 23 22 23 22 20 19 19 19 19 17 14 13
16 16 16 15 15 14 13 12 12 12 12 12 12 13 15 15 15 14 14 14 15 15 16 16 17 17 17 17 17 15 13 11 13 14 14 15 17 20 22 20 19 22 24 25 27 29 29 27 20 17 21 23 25 27 31 35 37 39 41 42 41 39 36 34 33 32 30 28 26 25 24 25 24 23 23 23 22 20 20 20 20 20 18 15 13
17 17 17 16 15 15 14 12 12 12 12 12 12 14 15 15 15 14 14 14 15 15 16 15 15 15 16 17 17 16 14 13 14 14 14 16 18 20 21 20 19 20 20 22 26 28 28 29 26 20 17 19 23 25 27 29 33 37 40 43 45 45 44 42 40 37 33 29 28 28 27 26 25 24 24 24 21 20 20 20 20 19 18 16 16
18 19 18 17 16 15 15 14 13 13 12 11 12 14 15 15 14 13 13 14 15 16 16 14 13 14 15 16 17 17 17 16 14 13 14 16 19 20 19 19 19 20 20 21 25 26 27 27 27 25 23 20 20 22 24 26 28 31 36 42 45 45 46 47 46 44 41 35 32 31 29 27 26 24 24 24 22 20 20 21 21 20 19 18 17
19 19 19 19 18 17 17 15 14 12 11 11 13 14 15 15 14 13 13 13 15 16 16 14 13 13 14 15 17 17 17 16 13 13 14 16 18 19 18 18 19 19 20 21 23 25 25 24 24 24 22 20 21 21 23 26 27 27 30 37 40 38 39 45 48 48 47 43 38 34 30 29 28 25 23 24 24 22 21 20 20 19 17 16 15
18 20 19 19 18 17 16 14 13 11 11 11 12 13 14 14 13 12 12 13 14 15 14 13 13 14 14 15 16 16 16 14 11 11 13 15 18 18 17 17 19 19 19 20 21 22 22 21 22 24 22 21 24 24 21 21 26 27 27 32 35 34 34 39 45 49 49 45 42 39 34 31 30 29 26 24 25 24 21 18 17 16 14 14 14
19 20 19 17 16 15 14 12 11 11 10 11 12 12 13 12 12 11 11 12 13 14 14 15 15 15 15 15 15 15 16 13 9 9 11 13 16 18 17 18 19 19 19 20 21 21 22 22 23 25 26 27 28 29 25 19 19 25 28 31 34 35 35 35 38 46 50 48 45 42 38 33 31 32 30 28 27 25 21 18 17 17 15 13 12
20 20 19 17 16 14 13 12 11 10 10 11 12 12 12 12 10 10 11 12 13 14 15 16 17 16 15 15 14 14 15 12 8 8 10 12 15 17 17 18 20 20 21 22 21 21 21 22 23 25 27 29 29 29 28 24 17 16 23 30 32 32 33 33 33 38 46 50 48 44 41 37 33 32 33 32 30 27 24 22 20 18 17 15 13
21 20 19 17 15 14 13 12 12 11 11 11 12 12 12 10 9 9 10 11 13 15 16 17 17 16 15 15 14 12 13 12 9 8 10 12 14 16 17 17 19 21 22 23 23 22 22 23 24 25 26 27 28 29 29 27 25 19 14 20 28 31 33 36 35 33 37 46 49 46 44 41 36 34 33 33 32 30 29 28 25 21 19 18 17
20 18 16 14 12 12 13 13 12 12 11 11 12 11 10 9 8 9 10 10 12 15 15 16 16 15 14 14 13 10 10 11 10 10 11 13 14 16 17 16 17 19 21 22 22 23 24 23 23 25 26 25 27 29 29 27 27 26 22 16 14 22 30 36 37 32 32 41 46 46 45 42 37 34 33 32 32 32 32 32 28 23 22 21 18
18 16 13 11 10 11 12 13 13 12 11 11 11 10 8 7 8 10 10 10 12 14 15 15 15 15 15 14 12 9 8 9 10 9 11 12 13 15 17 17 15 16 19 20 20 22 23 23 22 22 24 25 26 29 29 28 28 30 28 23 17 13 17 28 35 33 31 36 41 41 40 38 35 34 32 32 33 33 33 32 29 25 23 21 18
16 12 10 10 10 11 12 14 14 13 12 12 11 9 7 7 9 10 10 10 12 14 15 15 15 15 15 15 13 10 7 8 9 9 10 12 13 13 15 16 15 14 16 17 18 19 21 22 22 20 21 23 24 27 30 29 28 31 31 24 17 11 9 18 27 32 32 32 33 34 34 33 34 34 32 31 33 34 33 31 28 25 23 21 19
13 10 9 10 11 12 13 14 15 14 12 11 10 8 7 7 9 9 9 10 11 12 13 14 14 13 14 14 13 11 8 8 8 9 9 11 13 14 14 14 14 14 14 14 15 18 20 22 22 20 20 20 21 24 29 30 29 30 31 28 22 13 7 10 16 27 33 32 30 30 32 32 33 33 32 30 31 33 32 29 26 24 22 22 20
11 10 10 11 12 14 14 14 15 14 11 10 9 8 7 8 8 8 9 9 10 10 11 11 12 12 12 13 14 12 11 9 7 8 8 10 12 14 14 13 13 13 14 14 15 18 20 21 21 19 18 19 19 20 24 27 29 29 28 29 28 23 14 7 4 12 23 27 28 28 29 32 33 31 31 31 30 30 31 29 27 26 25 24 23
11 10 10 11 14 15 15 15 14 13 10 9 9 8 7 7 8 8 8 8 8 8 10 10 10 11 11 12 13 13 13 11 9 9 8 8 10 13 13 13 13 13 14 14 14 16 18 18 17 16 15 16 16 16 19 23 26 28 28 28 29 29 26 20 15 10 4 8 20 25 27 31 32 29 29 29 26 25 27 27 26 24 23 23 23
11 10 10 11 14 15 16 15 13 12 11 10 10 8 8 7 7 7 6 6 6 6 8 9 9 10 11 11 12 14 14 11 11 12 10 8 10 11 13 13 13 13 14 15 15 15 15 15 14 13 13 14 14 14 15 18 23 26 28 28 28 28 28 27 23 23 23 15 4 11 17 23 28 27 26 26 25 23 22 23 23 20 16 17 18
9 9 9 10 12 14 15 14 12 12 12 12 10 9 8 7 5 4 3 4 4 5 6 7 8 9 10 11 13 14 12 10 12 16 14 12 11 12 12 14 14 13 14 15 15 15 14 13 12 11 12 13 13 12 12 15 19 23 25 26 27 26 25 25 23 23 26 26 19 14 14 16 19 20 20 20 19 19 19 19 19 17 14 14 16
9 8 7 7 8 11 13 12 11 13 14 13 11 9 8 5 2 1 1 2 3 3 4 5 6 8 9 10 12 13 11 10 14 18 17 15 15 13 13 13 14 13 13 14 15 15 15 13 12 13 14 15 14 13 13 14 15 18 20 23 25 25 24 23 23 22 25 28 27 25 24 22 18 17 17 16 15 15 16 16 15 15 15 15 14
7 5 4 4 6 7 8 8 10 11 12 12 12 10 7 3 3 3 2 0 1 2 3 4 6 7 7 8 10 12 12 14 17 18 15 14 15 14 13 12 12 12 12 12 13 15 14 13 13 13 15 17 17 16 17 16 15 16 18 19 22 24 24 23 23 21 21 24 26 27 27 27 24 22 20 17 14 12 13 13 12 13 14 14 13
5 4 3 3 3 4 4 6 8 10 11 12 10 7 4 3 4 5 4 3 2 3 4 6 8 9 6 6 9 11 12 16 18 17 14 12 12 12 11 10 10 11 11 10 11 12 12 11 12 12 13 14 15 16 17 18 17 16 16 17 18 20 21 21 21 21 21 21 21 21 23 24 23 23 22 19 16 13 12 12 12 13 14 14 12
4 3 2 2 3 3 3 5 7 9 12 13 9 6 7 8 7 6 6 5 5 5 7 8 10 11 10 8 9 11 13 15 16 16 14 10 8 7 8 8 8 9 9 10 9 10 12 12 12 13 13 13 13 14 14 16 17 16 16 16 16 16 16 17 17 18 18 19 18 17 17 18 19 20 20 19 16 13 13 14 14 14 16 17 16
3 2 3 4 5 4 3 4 5 7 9 9 7 7 9 11 12 11 9 9 8 8 9 9 10 11 12 12 12 13 15 15 15 14 12 9 7 7 9 11 10 7 8 11 11 11 13 13 13 13 14 14 14 14 13 13 15 16 16 16 15 14 14 14 14 15 15 15 14 13 13 14 15 16 17 16 14 13 13 15 15 16 18 19 18
5 6 6 6 5 4 4 4 3 3 4 5 5 6 6 7 9 10 11 11 10 9 9 9 10 11 12 13 14 15 16 16 15 14 11 8 7 6 9 13 13 11 11 13 13 13 13 14 14 14 14 14 15 16 15 14 15 15 15 15 15 14 12 12 13 14 14 14 13 12 11 12 13 14 14 14 13 14 15 15 15 16 17 18 17
8 7 7 6 5 5 5 5 4 4 5 6 7 6 5 4 5 8 10 8 6 5 6 7 8 10 11 12 14 15 16 16 17 15 11 8 6 6 8 12 15 17 19 19 16 14 14 14 15 15 15 15 15 16 17 17 17 17 16 15 15 14 12 10 11 12 13 13 13 12 12 11 12 12 12 12 11 13 14 14 13 14 15 16 15
5 5 4 3 3 4 5 5 6 7 8 8 8 8 7 6 6 6 6 6 4 2 2 4 6 8 10 12 13 14 15 16 17 16 13 10 7 6 10 14 16 19 21 21 18 16 15 15 15 16 16 16 16 17 17 17 18 19 19 18 19 19 17 14 13 11 10 10 10 11 11 10 10 11 10 9 8 8 10 10 10 11 12 13 13
3 3 3 3 3 3 4 6 8 9 11 11 11 10 9 8 7 6 5 4 3 2 2 3 4 6 8 11 13 14 14 16 18 18 16 15 14 14 15 16 15 15 17 17 16 16 16 16 16 16 17 18 18 18 18 19 19 19 19 20 22 23 23 22 19 15 11 8 9 11 12 12 11 10 10 9 7 5 5 5 6 8 9 10 11
3 2 2 3 3 4 6 7 8 10 11 12 12 12 11 10 9 8 6 6 5 4 4 5 5 6 8 10 12 13 13 14 17 19 19 19 21 20 18 16 14 14 15 15 15 15 15 15 16 16 17 18 19 19 20 23 24 23 22 23 25 25 24 25 25 24 19 15 13 13 13 14 14 12 11 10 9 6 3 2 2 4 7 8 9
3 3 2 3 4 4 5 6 8 9 11 12 12 11 12 11 10 9 8 6 6 6 6 6 7 8 10 11 11 11 10 11 14 16 18 20 20 18 16 15 15 14 14 14 14 14 14 15 16 16 17 18 19 20 20 22 24 25 25 25 25 26 26 27 28 29 28 24 20 15 14 15 16 15 12 9 7 7 6 4 2 1 4 6 7
3 2 1 4 5 5 6 7 9 10 11 12 12 12 12 11 10 8 7 7 7 7 7 7 9 9 10 10 9 9 9 11 13 14 16 17 17 16 15 15 15 15 14 14 15 15 14 15 15 16 18 19 20 21 20 19 20 21 22 22 23 25 27 27 27 27 26 24 22 18 15 14 15 15 13 11 9 8 7 5 4 3 4 6 8
1 3 5 7 8 8 9 10 11 12 12 12 12 13 12 10 9 8 7 7 7 7 7 8 8 9 9 8 8 9 9 11 12 13 13 14 15 16 16 15 14 14 15 15 15 16 15 15 15 16 17 18 20 22 23 22 20 19 20 20 20 21 23 24 25 23 21 19 19 19 17 16 17 18 16 14 12 10 8 7 6 4 4 6 7
4 7 9 10 10 10 10 11 13 14 14 13 12 12 11 9 8 7 6 6 6 7 7 8 8 8 9 9 9 10 10 10 11 12 13 13 13 14 15 14 14 14 15 15 15 15 16 16 16 16 16 17 18 21 23 25 26 25 24 23 22 21 21 22 23 23 20 18 18 18 17 17 19 20 19 17 15 13 11 10 9 6 3 2 2
7 8 9 9 9 10 11 12 12 12 12 12 11 10 9 8 7 6 6 6 6 6 7 7 8 8 9 10 11 11 11 11 11 11 12 12 12 12 13 13 13 12 13 13 14 14 15 16 17 17 17 18 18 18 19 22 24 25 25 24 24 25 24 23 24 25 22 19 17 17 17 16 17 18 19 20 19 17 15 14 12 10 7 5 3
8 8 8 8 9 10 10 10 10 9 9 10 10 8 8 7 6 6 6 6 6 6 6 7 7 7 9 10 11 11 11 11 11 12 12 12 12 12 13 14 14 12 11 12 13 13 13 14 15 16 18 20 20 19 19 19 21 22 23 23 24 25 25 24 25 25 23 20 18 17 16 15 15 15 17 19 21 20 18 16 15 13 11 9 8
8 9 8 8 9 9 9 9 9 9 9 9 9 8 7 7 6 6 6 6 6 6 6 6 6 7 7 8 9 10 10 11 11 12 12 12 12 12 13 15 16 15 15 15 15 14 13 13 13 14 16 18 20 20 20 20 20 22 23 23 23 23 22 21 21 21 20 19 19 18 17 16 15 15 15 15 16 18 20 19 18 16 15 13 11
11 11 10 9 9 9 9 9 9 9 8 8 8 8 7 6 6 6 6 6 6 6 6 6 6 7 7 7 9 9 10 10 11 11 10 10 12 14 15 15 16 17 18 18 17 17 16 15 13 13 14 16 17 18 19 19 20 21 23 23 23 22 20 17 17 17 17 17 17 16 16 15 14 15 15 14 14 14 15 17 18 19 18 16 14
16 15 13 10 9 9 9 8 8 8 7 7 8 7 7 6 6 6 6 6 6 7 7 7 8 8 7 8 8 9 9 9 9 9 9 9 9 11 12 12 13 14 16 16 16 17 17 16 14 13 14 14 15 16 18 19 19 20 21 22 22 22 19 16 14 15 16 16 14 13 13 13 13 13 14 14 14 14 13 14 16 17 16 16 15
14 13 11 10 9 9 9 8 8 8 7 7 8 8 7 7 7 8 8 8 8 8 8 8 9 9 9 9 8 8 9 9 8 8 7 7 6 6 7 8 9 10 12 12 13 13 14 14 14 14 13 13 14 15 16 17 18 19 20 20 21 21 20 17 15 15 14 12 11 11 12 12 12 12 12 13 14 13 12 12 13 14 14 14 15
10 10 9 9 9 9 8 8 8 8 8 8 8 8 8 8 8 9 9 9 9 9 8 8 8 8 8 9 8 8 8 8 7 7 6 5 4 5 5 6 7 7 9 10 11 12 12 12 13 13 13 14 14 13 14 15 16 16 17 18 19 20 19 18 17 16 13 11 10 10 10 11 11 11 12 13 13 13 12 12 12 13 13 14 16
7 7 7 7 7 7 7 8 8 8 8 8 8 8 8 8 8 8 8 8 8 8 8 8 8 8 7 7 7 7 7 6 6 6 5 5 4 4 4 5 6 6 7 8 9 10 11 11 12 12 12 12 12 12 13 14 15 16 17 17 17 18 18 18 18 17 14 12 11 11 11 11 11 11 11 12 12 12 11 12 12 11 12 13 15
6 6 6 6 7 7 7 8 8 8 8 8 8 8 8 8 8 8 8 8 7 7 7 7 7 6 6 6 6 6 5 5 5 5 5 5 5 5 5 5 5 6 7 7 8 8 9 10 10 11 10 10 10 10 10 11 13 15 16 16 17 17 17 17 17 17 15 13 11 11 11 11 11 11 11 11 11 11 11 11 11 11 11 12 13
5 5 6 6 7 7 7 8 9 9 8 8 8 8 7 7 7 7 7 7 7 6 6 6 6 5 5 5 4 4 4 4 4 4 4 5 5 5 5 5 5 5 6 6 6 7 8 8 9 9 9 8 8 8 8 9 11 13 14 15 16 16 17 17 17 16 15 14 12 11 10 10 10 10 11 11 11 11 10 11 11 10 10 10 11
Wind_Direction
277 284 286 282 283 292 302 307 310 311 316 324 330 333 330 320 311 307 306 312 319 318 314 309 308 308 308 310 312 314 315 318 319 321 321 321 318 313 308 302 295 291 287 282 275 268 263 258 255 253 250 244 238 238 237 230 227 230 232 232 231 229 226 228 239 252 252 249 249 250 249 247 246 241 239 244 250 252 252 251 250 249 248 244 237
273 280 279 274 275 285 295 302 307 307 308 319 328 331 333 328 318 310 306 307 309 311 312 311 309 308 304 304 310 314 315 318 321 321 322 323 323 322 318 312 305 299 294 289 283 275 269 263 260 259 253 245 240 238 236 232 230 231 230 229 231 231 227 226 232 245 250 249 247 247 246 245 245 242 238 240 244 246 246 250 253 255 256 252 244
271 276 272 265 268 280 291 297 301 299 300 309 316 320 323 325 322 317 312 310 307 306 306 305 306 307 305 307 312 316 317 318 320 320 319 321 323 323 321 317 313 309 301 295 288 280 273 266 262 262 257 247 241 238 235 234 233 232 231 230 233 234 229 225 227 234 245 248 247 247 244 240 241 243 241 240 240 240 241 248 255 259 261 257 250
268 272 267 259 263 278 289 293 295 293 293 298 304 309 311 314 317 317 315 312 310 309 306 302 304 308 311 315 318 319 318 317 318 316 315 318 319 319 319 316 313 312 307 302 295 285 275 268 268 267 259 249 242 236 233 234 234 232 233 235 234 233 230 226 224 228 238 245 245 244 244 241 239 240 240 240 241 243 246 249 255 258 258 254 249
265 267 264 258 261 275 286 289 291 289 287 292 298 301 304 308 311 314 314 312 310 311 310 307 309 311 312 317 320 320 321 321 318 313 310 316 318 316 318 315 311 310 308 304 300 292 281 273 273 270 259 249 244 237 232 232 234 233 235 236 234 232 231 228 226 225 229 239 243 243 242 241 240 239 237 238 241 245 247 248 251 254 253 249 246
262 262 262 259 262 273 282 286 289 288 286 291 296 300 304 308 311 313 312 311 310 310 310 309 311 312 311 312 313 315 319 321 317 312 312 318 319 317 318 314 308 304 302 299 296 292 284 277 273 267 257 250 244 239 236 232 231 232 234 234 231 231 231 230 229 226 225 233 241 242 240 239 240 239 235 234 237 241 244 245 247 248 248 246 244
259 260 260 259 263 270 278 284 288 289 288 293 298 302 307 310 313 313 311 311 310 308 308 306 304 305 303 303 305 306 309 314 315 315 317 321 321 319 318 313 308 305 302 298 295 291 286 279 273 265 258 252 244 241 240 234 232 233 232 232 231 231 230 229 229 229 228 232 236 239 240 239 238 238 235 231 232 236 239 242 244 243 243 243 244
256 259 258 258 263 269 277 284 289 290 291 295 299 303 307 311 313 311 310 309 308 308 309 305 301 299 298 299 302 302 302 307 315 319 318 321 323 321 319 315 310 308 306 304 300 295 289 281 273 266 259 253 246 244 241 237 236 235 231 229 229 228 228 228 228 229 229 230 234 237 239 238 235 235 234 229 228 232 233 237 242 242 240 243 245
255 257 256 257 264 270 276 284 290 294 296 299 303 305 306 309 310 309 308 308 309 312 312 309 306 305 305 303 301 299 297 302 315 322 318 320 325 324 321 318 315 312 311 310 307 301 295 285 274 266 259 255 250 247 244 240 237 234 230 230 229 226 226 227 228 228 228 229 233 234 234 234 232 232 231 225 225 230 230 231 239 243 243 247 249
252 253 254 258 265 271 277 285 292 297 301 305 307 307 307 308 307 306 308 311 315 316 315 314 314 313 312 308 301 296 293 297 315 324 318 318 326 327 323 321 319 317 317 318 316 313 305 291 276 267 262 258 254 251 248 245 240 238 236 233 229 226 226 225 225 225 225 227 230 230 230 231 230 229 229 226 223 226 227 227 234 240 243 247 251
248 250 253 260 266 270 276 285 293 297 302 306 310 312 313 310 306 305 310 316 320 319 318 318 318 318 317 312 304 296 291 296 317 325 320 320 327 329 326 324 321 320 323 325 324 324 322 309 284 266 261 259 256 253 251 248 244 242 240 235 231 229 227 224 225 224 224 226 228 227 227 229 228 225 227 226 220 219 223 227 230 232 234 239 246
247 249 254 262 267 270 276 285 295 299 301 303 310 318 320 315 310 309 313 320 322 320 319 320 320 324 326 321 311 299 289 298 318 324 322 324 327 328 330 330 326 324 328 332 332 334 338 337 322 285 266 262 258 255 253 250 246 244 242 239 238 237 232 229 230 228 224 224 226 225 224 226 226 222 224 225 218 214 218 222 225 228 229 231 238
248 250 255 261 265 271 277 284 295 301 300 301 310 321 323 319 316 315 316 320 321 318 317 318 322 328 330 329 322 307 294 300 316 321 322 324 324 324 330 336 334 329 333 338 341 343 344 346 348 339 314 291 273 262 256 251 248 245 244 242 240 240 237 235 236 234 229 225 224 225 224 224 223 221 222 221 214 209 214 218 221 225 227 228 234
248 252 256 261 265 271 276 282 294 301 301 305 315 322 322 318 317 319 319 319 319 315 312 313 320 326 330 332 330 319 307 305 313 319 321 321 320 319 325 336 337 335 339 342 343 348 351 349 349 349 345 333 312 288 272 260 250 243 241 240 239 238 237 236 236 235 233 230 228 228 226 223 222 222 220 217 211 207 211 215 217 219 223 228 236
250 253 257 261 266 271 275 282 291 298 303 310 318 321 320 317 317 320 320 319 318 315 310 309 315 321 327 330 331 328 319 313 314 320 320 316 316 317 320 331 338 338 340 345 347 351 355 352 348 346 341 338 337 321 295 275 259 245 235 235 235 234 234 233 232 232 232 231 231 232 229 225 224 224 221 217 215 213 213 217 216 213 217 227 234
253 255 257 262 268 273 278 284 288 293 302 309 313 316 317 317 319 320 320 322 323 319 313 312 314 316 320 325 328 329 326 321 317 321 322 318 317 318 318 324 334 338 339 348 353 352 352 350 348 348 342 340 346 343 322 292 270 255 242 237 234 231 230 232 232 232 230 229 229 231 231 229 227 226 224 223 224 222 219 222 219 212 215 222 226
254 256 258 262 268 274 280 283 283 287 296 301 303 309 315 316 317 320 324 326 327 323 316 313 312 312 315 320 324 328 328 325 317 315 320 321 320 321 319 318 325 331 335 343 349 348 350 354 353 351 348 348 352 351 346 328 288 261 250 244 240 234 231 231 231 232 232 230 228 227 229 230 228 228 228 229 232 226 219 220 219 214 217 220 220
256 259 263 268 271 274 277 278 277 280 287 292 295 301 310 314 314 319 325 327 327 325 321 316 312 310 311 316 322 327 326 320 310 305 313 320 321 322 321 318 319 323 328 333 338 341 347 353 355 353 350 351 354 354 355 354 334 289 260 249 243 239 235 229 225 228 230 229 228 226 225 227 227 227 230 232 232 225 217 217 218 213 213 216 218
259 264 273 280 279 274 271 270 269 272 278 285 288 295 306 310 310 316 323 325 327 329 327 324 320 316 314 317 323 331 329 318 305 299 305 313 317 319 320 318 317 321 326 328 329 334 342 349 353 355 353 353 356 357 360 3 2 349 311 264 245 240 238 231 222 219 220 222 223 223 223 224 224 226 229 230 229 225 220 221 220 215 213 215 216
264 272 282 287 280 269 263 263 265 268 272 279 284 292 302 304 303 314 319 319 323 328 329 328 326 322 322 324 328 338 339 326 313 305 306 310 310 312 314 314 315 320 326 328 327 329 336 343 350 357 357 356 357 360 2 5 5 5 2 340 285 253 244 234 223 213 210 213 217 219 221 221 221 222 224 224 224 225 223 223 221 217 216 217 215
268 278 286 287 279 269 261 259 261 264 267 272 278 286 294 295 300 310 313 313 320 326 329 327 326 327 330 332 332 341 350 343 331 322 318 316 312 309 308 309 313 318 321 324 327 329 333 336 341 350 357 357 358 0 1 3 7 10 11 2 340 300 253 230 216 208 207 208 210 213 216 216 216 217 218 218 219 220 221 222 220 219 220 219 215
271 280 284 282 281 275 267 261 260 261 263 266 271 278 285 291 302 308 306 309 319 324 328 329 328 329 333 336 336 341 352 354 346 339 334 333 331 325 317 313 315 319 318 322 327 329 332 335 336 340 349 354 359 2 2 3 7 12 14 7 351 330 274 228 209 202 203 204 203 206 208 208 210 212 212 212 212 214 218 220 219 220 223 220 218
268 274 273 272 277 279 275 269 263 260 259 261 264 270 280 293 303 304 303 311 320 322 326 331 328 325 329 333 336 340 345 351 353 348 343 344 344 343 337 328 321 319 316 316 322 327 331 335 337 338 342 347 354 3 6 8 8 9 14 16 12 3 313 255 218 200 198 197 197 200 203 204 207 208 206 205 207 210 213 216 217 219 221 219 218
258 262 265 268 273 277 282 279 268 256 250 254 256 259 275 291 296 299 304 314 320 320 322 327 327 324 325 327 331 337 340 343 350 351 346 344 345 347 348 344 335 327 322 317 320 327 331 335 338 341 343 346 352 1 8 13 14 12 14 19 23 27 23 353 273 207 198 194 192 194 198 200 201 202 201 202 207 211 212 214 218 219 219 217 215
247 257 267 273 275 278 287 287 269 246 235 238 240 247 267 283 288 296 307 315 318 319 321 323 324 324 325 324 326 334 339 340 342 346 345 343 343 345 348 351 349 343 338 337 337 335 336 337 339 344 351 355 358 2 9 17 21 19 16 18 24 29 31 33 38 46 68 182 190 190 192 195 196 197 198 199 204 209 209 212 215 214 211 214 214
247 263 273 278 282 287 293 287 262 234 230 232 231 241 262 272 279 292 302 310 315 317 320 323 325 327 329 328 327 333 341 343 340 339 340 341 342 344 346 352 356 353 351 353 353 349 346 346 346 350 2 9 10 8 8 17 26 26 22 22 25 28 28 31 39 45 42 40 91 163 170 182 189 191 194 198 201 204 206 206 204 199 195 200 202
258 268 271 280 293 303 301 284 245 215 218 226 227 238 254 262 272 288 295 307 315 317 321 329 334 334 334 334 333 335 343 349 343 339 339 340 342 345 348 351 356 359 359 358 359 357 354 354 358 4 14 21 22 18 13 16 25 29 28 26 28 30 32 34 38 46 50 47 46 66 100 133 156 166 174 182 183 184 187 190 190 185 182 183 183
256 258 267 287 309 319 310 281 235 208 210 221 229 238 248 249 240 230 270 304 318 326 332 339 342 341 339 340 339 338 343 352 349 342 338 336 336 339 347 352 357 3 4 0 359 1 3 7 14 18 22 27 29 28 26 23 25 29 30 29 29 30 33 39 42 44 52 55 53 56 66 78 91 107 125 137 144 155 168 174 175 174 176 177 174
244 248 270 296 318 327 311 267 228 209 209 219 229 234 234 210 163 168 179 217 327 353 2 3 3 359 352 352 352 347 344 346 345 340 334 331 331 334 340 348 354 360 5 5 5 5 6 11 15 16 17 22 24 25 28 29 28 30 32 32 32 30 31 37 40 38 44 54 57 56 59 62 64 70 83 96 108 129 153 162 158 154 157 162 160
230 237 255 289 315 328 305 250 230 220 218 221 221 211 184 151 162 165 143 107 62 39 40 35 30 29 29 27 24 16 1 350 346 343 337 332 334 338 339 344 350 353 1 12 16 10 4 5 10 10 10 14 17 18 24 29 30 30 33 35 37 36 34 36 39 38 42 49 54 57 60 62 63 63 66 73 82 99 121 135 139 135 131 131 130
219 224 232 268 288 301 286 253 242 235 233 231 217 172 128 114 118 123 115 101 80 61 58 52 44 42 45 45 37 26 14 1 354 351 349 348 358 7 6 6 4 2 12 27 29 16 6 4 9 10 9 12 13 11 17 28 33 32 32 36 39 39 38 38 39 39 42 47 51 55 60 64 68 69 67 67 72 83 97 108 115 118 116 112 107
214 243 264 268 267 262 249 245 245 243 242 237 217 184 157 133 122 118 109 98 89 81 74 67 57 49 46 45 39 28 19 12 7 5 4 10 33 48 40 34 30 27 36 41 35 19 12 10 9 10 10 9 9 7 9 19 26 29 32 34 35 36 39 43 42 41 44 49 50 52 60 69 76 79 78 75 73 76 84 93 99 104 105 102 96
239 247 253 249 241 230 223 227 227 225 224 213 192 190 183 154 141 141 129 106 90 84 78 72 69 63 52 46 43 35 25 19 16 14 15 25 43 50 42 38 36 38 47 46 32 19 16 16 13 12 12 10 8 8 10 12 18 26 32 30 27 29 34 41 47 48 49 51 50 49 54 62 70 76 82 82 76 73 78 88 98 101 100 97 93
251 251 250 242 232 231 227 218 205 186 176 171 170 176 182 182 182 178 164 143 118 95 70 53 54 59 54 46 41 35 29 23 19 16 15 17 18 21 36 43 44 47 52 50 38 25 21 20 16 13 13 13 12 13 14 14 18 29 37 35 32 32 34 38 43 44 44 46 47 45 45 46 48 52 60 70 74 72 74 84 96 103 102 100 97
256 260 259 247 247 249 233 211 195 180 169 169 174 174 172 173 180 182 174 167 165 156 69 27 29 40 46 45 40 32 29 28 23 18 18 19 19 32 48 49 45 44 47 47 41 34 29 25 22 18 16 17 17 17 16 17 20 26 32 37 40 42 42 41 41 41 40 37 32 28 26 27 28 27 30 44 65 76 77 83 95 107 112 110 108
258 266 268 267 269 253 215 193 185 178 169 165 165 162 154 148 145 143 135 123 120 109 47 28 20 21 31 36 33 26 28 33 33 31 36 46 54 57 54 46 39 38 41 40 39 38 35 30 26 24 23 23 24 22 23 26 28 27 29 36 42 44 43 44 46 47 46 38 30 23 15 12 13 13 14 23 40 65 92 103 107 118 126 126 121
288 297 279 259 245 212 187 178 177 172 160 150 147 145 140 133 126 118 109 98 88 70 45 33 25 16 16 19 20 19 24 34 38 38 42 48 52 52 50 45 42 41 40 36 34 35 35 32 29 27 25 25 27 28 30 34 39 40 39 40 43 44 44 45 48 49 48 43 37 31 24 23 25 21 20 26 29 29 45 89 127 138 141 142 140
302 297 256 212 196 186 169 152 147 146 139 132 130 129 125 120 115 111 105 93 78 65 48 37 33 27 18 12 13 20 28 34 37 37 36 39 42 45 47 47 45 43 39 33 31 33 34 32 31 31 29 29 31 33 33 34 37 40 41 40 41 42 44 47 48 48 46 42 37 31 26 28 29 27 27 31 23 13 18 18 338 223 177 174 173
320 318 184 164 162 160 149 135 131 131 128 125 125 123 117 113 111 111 108 95 77 63 53 48 41 32 21 14 14 25 38 42 42 39 38 39 41 44 47 48 46 44 39 33 31 32 32 30 28 29 30 32 33 35 34 30 28 30 32 34 35 37 40 41 42 42 40 37 33 30 26 24 23 24 29 33 25 12 6 355 334 298 249 229 217
56 98 118 127 129 131 130 128 127 124 120 118 117 114 111 111 114 114 108 96 81 67 63 63 53 39 33 34 37 44 52 53 50 48 47 47 46 46 49 49 46 42 39 36 35 33 31 29 27 26 27 28 31 34 36 34 30 28 29 29 29 30 32 33 34 33 30 27 26 28 28 26 26 26 25 26 26 20 7 348 339 328 287 261 243
112 110 112 115 116 115 112 110 110 111 111 111 108 106 107 111 115 115 108 100 90 78 76 80 71 56 54 63 70 69 67 63 60 60 60 58 54 51 53 53 50 45 43 40 37 35 34 34 32 30 28 28 28 31 34 37 38 38 37 33 30 29 30 29 30 30 27 21 20 22 23 26 30 31 28 24 21 18 14 9 4 360 344 307 259
117 111 109 110 111 109 105 105 106 107 107 105 102 104 110 114 114 113 110 105 98 91 90 92 85 70 67 73 77 75 72 69 69 68 66 63 60 58 57 55 52 47 43 39 36 36 38 38 37 35 34 32 29 27 28 31 34 36 36 34 32 32 31 28 27 29 29 23 18 18 19 21 26 31 33 32 28 21 16 13 11 12 15 11 359
118 115 114 114 112 110 109 109 107 104 102 103 104 108 113 113 111 112 113 108 103 101 100 97 90 78 69 67 68 70 70 70 71 71 71 69 66 63 60 59 57 54 49 45 42 40 38 38 38 39 40 40 39 36 33 32 32 33 34 33 32 31 30 27 24 25 25 22 19 17 17 19 23 27 32 35 35 30 25 18 12 10 12 9 5
116 114 115 113 110 107 107 106 106 105 105 107 108 108 108 108 108 110 111 111 109 107 102 98 95 87 75 67 67 71 74 73 73 75 75 73 69 65 63 62 61 60 57 53 50 47 45 41 38 38 39 40 42 42 39 37 36 35 35 33 31 28 27 25 22 20 19 18 18 17 16 16 21 24 24 26 31 33 33 29 23 16 12 11 12
121 116 114 111 109 106 105 105 108 111 112 111 108 104 104 106 109 112 114 115 113 109 103 100 99 95 85 78 77 79 81 81 79 78 78 76 74 71 66 63 61 61 59 56 53 51 49 45 39 36 35 36 37 39 39 38 38 37 36 34 31 27 24 22 20 19 18 17 17 16 14 13 15 19 19 18 20 24 28 31 32 30 23 17 13
119 116 114 111 109 107 106 106 108 110 110 110 108 107 108 108 109 112 115 115 114 112 109 106 102 97 93 90 86 85 86 87 84 80 79 79 77 71 64 60 60 59 57 54 50 48 48 45 40 37 35 34 34 36 37 37 37 37 36 34 31 28 25 21 18 19 20 19 16 13 9 7 10 14 15 15 17 18 19 23 30 33 30 24 19
112 112 111 109 106 105 104 105 106 106 106 108 109 111 113 112 110 109 110 111 114 114 110 104 100 96 93 91 89 86 85 84 82 81 78 75 72 67 59 56 57 57 56 54 50 46 44 42 39 37 35 33 33 34 36 37 37 35 33 31 29 27 26 24 20 17 17 16 13 9 6 6 8 11 11 13 16 17 15 15 18 22 23 22 22
105 108 109 108 108 110 110 110 111 110 109 109 111 112 114 114 112 110 110 112 113 113 109 105 101 97 94 91 87 84 81 78 76 76 75 70 67 65 58 54 55 58 58 56 52 48 46 43 39 36 34 33 33 32 32 34 36 34 32 30 28 26 26 25 22 19 17 14 10 10 11 10 10 11 12 12 13 14 13 12 11 13 16 16 16
104 110 113 112 111 113 114 115 115 113 110 110 110 110 112 114 114 114 116 118 116 112 109 107 103 100 96 93 89 84 80 74 69 66 67 68 69 67 61 56 59 61 60 56 52 48 45 42 39 36 33 32 33 34 31 30 32 32 31 30 28 27 27 25 22 20 20 19 15 12 13 14 14 14 13 12 11 11 12 11 10 11 15 18 16
106 110 114 115 114 114 116 116 115 112 111 113 113 111 112 114 114 116 120 124 122 118 114 111 108 105 100 97 92 86 79 71 66 64 67 70 73 74 73 71 71 69 65 60 52 46 43 39 35 34 33 30 31 35 33 29 30 31 29 25 23 22 23 23 21 20 23 27 22 15 15 17 16 16 15 13 11 11 10 10 12 14 15 17 19
110 112 114 116 117 118 118 118 117 116 115 115 115 115 116 116 116 119 125 128 127 126 121 118 116 114 109 104 98 89 79 73 73 77 79 79 80 82 83 83 81 75 68 60 51 45 41 36 31 30 29 28 31 37 34 29 31 33 29 23 19 17 18 20 19 20 27 34 29 20 19 21 19 17 16 14 11 11 10 8 9 13 13 12 14